Flag for Canada Weather past 2 weeks in Chatham-Kent, Ontario, Canada

Now
55 °F

Refreshingly cool.


Feels Like: 54 °F
Forecast: 46 / 54 °F
Wind: 7 mph from West

Location: Erieau

Current Time: Oct 25, 2014 at 11:55:35 PM

Latest Report: Oct 25, 2014 at 11:00 PM


Visibility: N/A

Pressure: 29.77 "Hg

Humidity: 48%

Dew point: 36 °F

Location of Chatham-KentLocation

Historic Weather in Chatham-Kent — Graph

°F

Chatham-Kent temperature yesterday

Maximum temperature yesterday: 57 °F (at 1:00 PM)
Minimum temperature yesterday: 44 °F (at 5:00 AM)
Average temperature yesterday: 51 °F

Past Weeks' High & Low Weather Summary

 TemperatureHumidityPressure
High66 °F (Oct 25, 5:00 PM)100% (Oct 16, 5:00 AM)30.29 "Hg (Oct 16, 5:00 AM)
Low38 °F (Oct 19, 8:00 AM)40% (Oct 11, 5:00 PM)29.51 "Hg (Oct 17, 3:00 PM)
Average54 °F78%29.94 "Hg
* Reported Oct 10 10:00 PM — Oct 25 10:00 PM, Chatham-Kent, Weather by CustomWeather, © 2014

Note: Actual official high and low records may vary slightly from our data, if they occured in-between our weather recording intervals... More about our weather records

Advertising

Chatham-Kent weather history for previous 24 hours

 ConditionsComfort  
Time TempWeatherWind HumidityBarometerVisibility
10:00 PM
Oct 25
57 °FRefreshingly cool.10 mph46%29.75 "HgN/A
9:00 PM59 °FRefreshingly cool.13 mph42%29.73 "HgN/A
8:00 PM60 °FRefreshingly cool.12 mph51%29.71 "HgN/A
7:00 PM59 °FCool.3 mph68%29.70 "HgN/A
6:00 PM62 °FCool.6 mph66%29.70 "HgN/A
5:00 PM66 °FMild.9 mph48%29.70 "HgN/A
4:00 PM60 °FCool.8 mph82%29.70 "HgN/A
3:00 PM64 °FMild.7 mph67%29.72 "HgN/A
2:00 PM61 °FCool.8 mph72%29.74 "HgN/A
1:00 PM60 °FCool.10 mph73%29.77 "HgN/A
12:00 PM58 °FCool.14 mph84%29.76 "HgN/A
11:00 AM57 °FCool.14 mph84%29.77 "HgN/A
10:00 AM56 °FCool.13 mph87%29.80 "HgN/A
9:00 AM56 °FCool.14 mph89%29.81 "HgN/A
8:00 AM55 °FCool.9 mph89%29.84 "HgN/A
7:00 AM55 °FCool.12 mph89%29.87 "HgN/A
6:00 AM56 °FCool.8 mph88%29.86 "HgN/A
5:00 AM56 °FCool.8 mph83%29.88 "HgN/A
4:00 AM56 °FCool.7 mph84%29.89 "HgN/A
3:00 AM57 °FCool.7 mph84%29.91 "HgN/A
2:00 AM57 °FCool.10 mph82%29.93 "HgN/A
1:00 AM56 °FCool.8 mph82%29.94 "HgN/A
12:00 AM56 °FCool.6 mph80%29.95 "HgN/A
11:00 PM
Oct 24
55 °FCool.5 mph79%29.96 "HgN/A
Weather by CustomWeather, © 2014

See weather overviewHow to use our weather pages